CZ-6A DEB, 61480

Orbit data source: Space-Track

CZ-6A DEB, 61480 is space debris in LEO originally from a launch on Tue, 06 Aug 2024 UTC launched from the Taiyaun Space Center, China (TSC). Debris objects in space refer to the collection of defunct objects orbiting the Earth. Examples of debris include non-operational satellites, rocket bodies, and fragments generated from explosions, collisions, or faulty payload assembly.

Loading next visibility...
Identifier
61480, 2024-140AAN
Orbit
LEO
Country
Flag of CNCN / PRC
Related business
Manufacturer
SAST
Mission
Spacecraft
Bus & Motor
Unknown
Mass
Unknown
Launch date (UTC)
2024-08-06 (1 year ago)
Launch vehicle
Unknown
Launch site
Taiyaun Space Center, China (TSC)
Object type
Payload
Rocket body
Debris
Shape & HBR
Unknown
Radar Cross Section
Small (<0.1 m²)

Expand to show TLE details & history
Last TLE update: 2 days ago

TLE from 2 days ago
0 CZ-6A DEB
1 61480U 24140AAN 25260.12719637  .00028292  00000-0  22623-2 0  9991
2 61480  89.3800 320.5190 0098061  23.6355 336.9335 14.96326485 55850
Epoch: 2025-09-17T03:03Z
TLE epoch observation values (Epoch: 2025-09-17T03:03:09.766Z)
Latitude
-0.00011°
Longitude
-81.5793°
Altitude
518.75 km
Speed
7.638 km/s
True Right ascension
21h 22m 04s
True Declination
0° 00' 00"
Sunlit
Object was in full shadow at epoch
Visualization orbit readout
Latitude
Unknown
Longitude
Unknown
Altitude
Unknown
Speed
Unknown
Apparent Right ascension
Unknown
Apparent Declination
Unknown
Sunlit
N/A
Visualization observer readout
Local Sidereal Time
13:00:58
Azimuth
Unknown
Elevation
Unknown
Doppler factor
Unknown
Orbital elements
Apogee altitude
643.283 km
Perigee altitude
506.915 km
Semi-major axis
6,953.236 km
Eccentricity
0.00981
Inclination
89.38°
RAAN
320.519°
Arg. of periapsis
23.6355°
True anomaly
336.48822°
Mean anomaly
336.9335°
Eccentric anomaly
336.71137°
Mean motion
3.74337 °/min
Orbital period
96.17 mins
BSTAR
0.0022623
Loading maneuver chart data...
Computing Atmospheric mass density...
Loading historical data...
Loading historical data...
Loading historical data...
Loading historical data...
Loading historical data...
Loading historical data...
Loading historical data...

Documentation

Showing up to 5 results
|